Total_Precipitation_Accumulation
2.46 2.62 2.04 1.22 0.83 0.59 0.46 0.41 0.37 0.33 0.34 0.45 0.48 0.39 0.37 0.38 0.43 0.42 0.42 0.46 0.52 0.56 0.57 0.58 0.64 0.72 0.77 0.84 0.92 1.01 1.14 1.23 1.32 1.50 1.60 1.61 1.63 1.60 1.63 1.62 1.55 1.53 1.48 1.43
2.33 1.96 1.10 0.69 0.67 0.72 0.68 0.58 0.43 0.35 0.32 0.43 0.47 0.43 0.38 0.36 0.39 0.39 0.37 0.42 0.49 0.54 0.56 0.58 0.60 0.64 0.66 0.75 0.84 0.91 1.02 1.17 1.27 1.43 1.58 1.59 1.59 1.58 1.61 1.69 1.74 1.69 1.64 1.57
1.59 1.11 0.71 0.84 0.97 1.05 0.93 0.68 0.49 0.44 0.42 0.51 0.54 0.55 0.41 0.37 0.33 0.32 0.33 0.38 0.43 0.48 0.53 0.56 0.57 0.58 0.58 0.62 0.73 0.83 0.91 1.00 1.09 1.25 1.46 1.59 1.73 1.76 1.72 1.73 1.75 1.69 1.71 1.70
1.35 0.80 0.70 0.97 1.07 1.04 1.00 0.58 0.51 0.59 0.76 0.85 0.68 0.77 0.45 0.35 0.31 0.28 0.28 0.32 0.35 0.36 0.41 0.48 0.52 0.55 0.54 0.54 0.60 0.69 0.81 0.95 1.04 1.17 1.32 1.43 1.55 1.71 1.69 1.63 1.62 1.64 1.69 1.78
1.53 0.81 0.73 0.90 0.81 0.80 0.82 0.60 0.68 0.82 1.08 1.22 0.85 0.75 0.43 0.27 0.29 0.26 0.24 0.27 0.29 0.30 0.32 0.38 0.42 0.45 0.49 0.52 0.54 0.56 0.65 0.79 0.94 1.11 1.23 1.37 1.46 1.50 1.58 1.62 1.68 1.70 1.70 1.70
1.20 0.78 0.72 0.65 0.53 0.69 0.89 1.07 1.36 1.58 2.15 2.32 0.90 0.60 0.39 0.24 0.26 0.23 0.21 0.23 0.22 0.24 0.28 0.34 0.38 0.40 0.45 0.49 0.51 0.52 0.55 0.61 0.74 0.91 1.09 1.19 1.29 1.39 1.53 1.61 1.63 1.63 1.64 1.67
1.63 1.10 0.84 0.64 0.80 1.07 1.41 2.02 3.10 3.55 3.64 2.24 0.52 0.37 0.36 0.22 0.17 0.17 0.17 0.20 0.18 0.18 0.20 0.23 0.27 0.32 0.38 0.42 0.47 0.53 0.57 0.61 0.68 0.81 0.95 1.02 1.09 1.22 1.37 1.50 1.58 1.62 1.63 1.62
1.52 1.26 0.85 0.69 0.77 1.08 1.25 1.57 2.22 2.25 1.55 0.69 0.28 0.32 0.30 0.18 0.12 0.10 0.11 0.15 0.17 0.16 0.16 0.17 0.18 0.21 0.26 0.32 0.37 0.44 0.51 0.55 0.58 0.70 0.82 0.88 0.93 1.03 1.16 1.30 1.43 1.48 1.49 1.49
1.07 0.85 0.48 0.42 0.44 0.65 1.08 1.28 1.12 1.50 1.18 0.68 0.40 0.29 0.20 0.13 0.09 0.09 0.10 0.12 0.16 0.15 0.14 0.19 0.17 0.16 0.19 0.24 0.31 0.39 0.45 0.49 0.51 0.58 0.70 0.83 0.91 1.00 1.05 1.06 1.13 1.22 1.28 1.32
1.09 0.98 0.49 0.40 0.60 0.75 0.87 1.11 1.57 2.44 2.41 1.26 0.50 0.26 0.22 0.16 0.11 0.10 0.11 0.13 0.14 0.14 0.14 0.18 0.19 0.17 0.18 0.22 0.27 0.32 0.39 0.47 0.53 0.59 0.67 0.75 0.82 0.91 0.99 1.06 1.09 1.11 1.15 1.21
1.30 1.53 0.96 0.70 0.87 0.83 0.87 1.24 1.78 2.28 2.09 1.40 0.74 0.34 0.23 0.18 0.14 0.12 0.13 0.14 0.15 0.14 0.14 0.17 0.19 0.18 0.19 0.23 0.26 0.29 0.37 0.44 0.50 0.57 0.66 0.71 0.76 0.82 0.89 0.98 1.00 1.03 1.07 1.11
1.37 2.14 1.72 0.83 0.54 0.51 0.76 0.88 1.23 2.03 1.88 1.13 0.93 0.52 0.19 0.16 0.15 0.12 0.12 0.13 0.16 0.16 0.15 0.17 0.20 0.20 0.21 0.22 0.24 0.26 0.29 0.37 0.41 0.47 0.55 0.61 0.67 0.76 0.87 0.94 0.97 1.01 1.05 1.08
1.89 3.02 3.15 2.13 1.31 0.93 0.99 0.85 0.95 1.47 1.92 1.67 1.39 0.69 0.20 0.16 0.17 0.15 0.14 0.14 0.15 0.17 0.16 0.16 0.17 0.20 0.21 0.22 0.22 0.23 0.24 0.29 0.33 0.37 0.44 0.51 0.58 0.65 0.74 0.82 0.86 0.91 0.96 1.00
2.54 3.26 2.69 1.99 1.13 0.89 0.97 0.75 0.75 1.54 2.48 1.81 0.95 0.45 0.24 0.20 0.21 0.20 0.18 0.16 0.15 0.17 0.17 0.15 0.16 0.19 0.19 0.22 0.23 0.24 0.24 0.25 0.29 0.33 0.38 0.44 0.50 0.57 0.64 0.71 0.76 0.82 0.85 0.86
2.95 3.55 1.81 0.88 0.55 0.57 0.73 0.67 0.63 0.91 1.10 1.21 0.65 0.34 0.27 0.25 0.23 0.22 0.20 0.19 0.18 0.17 0.16 0.15 0.16 0.19 0.20 0.20 0.20 0.22 0.26 0.27 0.29 0.33 0.38 0.42 0.46 0.51 0.60 0.66 0.71 0.76 0.79 0.80
2.95 3.38 2.03 1.21 0.57 0.61 0.82 0.61 0.52 0.58 0.58 0.60 0.46 0.39 0.29 0.22 0.19 0.19 0.20 0.20 0.19 0.17 0.17 0.18 0.19 0.20 0.19 0.19 0.20 0.21 0.25 0.27 0.29 0.31 0.35 0.38 0.42 0.46 0.52 0.58 0.64 0.72 0.76 0.77
3.46 3.75 3.46 2.32 0.84 1.41 1.73 0.61 0.31 0.34 0.34 0.38 0.45 0.45 0.32 0.20 0.16 0.18 0.21 0.21 0.21 0.21 0.20 0.20 0.21 0.23 0.23 0.21 0.21 0.22 0.23 0.23 0.24 0.27 0.31 0.35 0.39 0.42 0.44 0.48 0.56 0.65 0.70 0.74
3.22 3.69 4.66 4.04 2.66 3.19 1.26 0.20 0.13 0.19 0.24 0.25 0.34 0.38 0.30 0.22 0.18 0.21 0.24 0.23 0.22 0.22 0.22 0.22 0.23 0.25 0.25 0.24 0.22 0.23 0.25 0.26 0.26 0.27 0.30 0.33 0.36 0.40 0.41 0.43 0.46 0.53 0.60 0.68
1.85 2.92 4.94 5.17 4.04 2.10 0.39 0.11 0.14 0.21 0.28 0.32 0.32 0.29 0.22 0.17 0.19 0.22 0.21 0.22 0.23 0.23 0.23 0.23 0.24 0.26 0.27 0.27 0.25 0.25 0.28 0.30 0.31 0.33 0.34 0.36 0.36 0.36 0.38 0.40 0.42 0.46 0.50 0.56
1.45 2.31 4.59 5.41 4.50 2.01 0.36 0.14 0.12 0.29 0.59 0.51 0.41 0.35 0.26 0.24 0.32 0.25 0.19 0.20 0.21 0.22 0.24 0.24 0.25 0.25 0.26 0.30 0.30 0.30 0.31 0.31 0.34 0.36 0.37 0.38 0.39 0.39 0.40 0.39 0.40 0.44 0.48 0.53
2.03 3.32 4.55 4.24 3.58 1.58 0.43 0.19 0.22 0.68 0.85 0.52 0.38 0.32 0.30 0.33 0.37 0.32 0.25 0.22 0.21 0.21 0.21 0.22 0.23 0.24 0.25 0.27 0.29 0.30 0.31 0.33 0.36 0.37 0.37 0.37 0.38 0.40 0.40 0.39 0.40 0.43 0.47 0.52
1.04 1.97 2.48 2.56 3.13 1.71 0.38 0.27 0.53 0.73 0.50 0.39 0.30 0.28 0.31 0.30 0.26 0.25 0.23 0.22 0.20 0.20 0.20 0.20 0.20 0.22 0.24 0.26 0.28 0.29 0.30 0.33 0.34 0.35 0.35 0.35 0.36 0.36 0.37 0.39 0.42 0.44 0.48 0.54
0.59 0.86 1.05 1.30 1.32 0.70 0.40 0.43 0.53 0.50 0.44 0.33 0.28 0.25 0.24 0.23 0.21 0.19 0.19 0.19 0.20 0.20 0.21 0.21 0.21 0.21 0.22 0.25 0.26 0.28 0.31 0.31 0.32 0.32 0.34 0.36 0.37 0.38 0.39 0.42 0.47 0.51 0.56 0.61
0.54 0.54 0.75 0.87 0.68 0.50 0.45 0.45 0.46 0.45 0.43 0.35 0.30 0.27 0.25 0.23 0.21 0.19 0.19 0.20 0.21 0.21 0.23 0.23 0.23 0.22 0.23 0.24 0.25 0.29 0.31 0.30 0.30 0.31 0.34 0.37 0.40 0.43 0.45 0.47 0.49 0.55 0.62 0.69
0.56 0.59 0.78 0.86 0.61 0.52 0.51 0.47 0.45 0.41 0.37 0.33 0.29 0.27 0.27 0.26 0.24 0.23 0.22 0.22 0.23 0.23 0.24 0.24 0.25 0.25 0.26 0.26 0.27 0.29 0.31 0.31 0.32 0.32 0.34 0.36 0.39 0.44 0.49 0.52 0.56 0.60 0.65 0.76
0.43 0.47 0.64 0.69 0.52 0.57 0.53 0.43 0.42 0.41 0.40 0.39 0.35 0.31 0.29 0.30 0.29 0.26 0.24 0.24 0.24 0.25 0.25 0.25 0.26 0.25 0.26 0.26 0.27 0.29 0.31 0.33 0.34 0.35 0.34 0.36 0.40 0.43 0.47 0.52 0.59 0.67 0.69 0.76